This is the latest recevied weather packets stored in our database for station/object WC0AA15WX. If no packets are shown the sender has not sent any weather packets the latest 10 day(s).
| Time | Temp. | Humidity | Pressure | Rain* | Wind** | Luminosity | Snow |
|---|---|---|---|---|---|---|---|
| 1777549774 | 7.78° C | 88% | 1023.4 hPa | 0 mm | - | - | - |
| 1777549174 | 8.33° C | 89% | 1023.4 hPa | 0 mm | - | - | - |
| 1777548574 | 8.33° C | 88% | 1023.4 hPa | 0 mm | - | - | - |
| 1777547974 | 7.78° C | 87% | 1023.4 hPa | 0 mm | - | - | - |
| 1777547374 | 7.78° C | 86% | 1023.7 hPa | 0 mm | - | - | - |
| 1777546744 | 7.78° C | 82% | 1023.7 hPa | 0 mm | - | - | - |
| 1777546144 | 7.78° C | 79% | 1023.7 hPa | 0 mm | - | - | - |
| 1777545544 | 8.33° C | 79% | 1023.4 hPa | 0 mm | - | - | - |
| 1777544944 | 8.89° C | 76% | 1023.4 hPa | 0 mm | - | - | - |
| 1777544344 | 8.33° C | 77% | 1023.7 hPa | 0 mm | - | - | - |
| 1777543714 | 8.33° C | 78% | 1024 hPa | 0 mm | - | - | - |
| 1777543114 | 8.33° C | 77% | 1024 hPa | 0 mm | - | - | - |
| 1777542514 | 8.89° C | 77% | 1024 hPa | 0 mm | - | - | - |
| 1777541914 | 8.33° C | 78% | 1024 hPa | 0 mm | - | - | - |
| 1777541314 | 8.33° C | 78% | 1024 hPa | 0 mm | - | - | - |
| 1777540714 | 8.33° C | 78% | 1024.4 hPa | 0 mm | - | - | - |
| 1777540114 | 8.33° C | 78% | 1024.4 hPa | 0 mm | - | - | - |
| 1777539514 | 8.33° C | 78% | 1024 hPa | 0 mm | - | - | - |
| 1777538916 | 8.33° C | 77% | 1024 hPa | 0 mm | - | - | - |
| 1777538885 | 8.33° C | 77% | 1024 hPa | 0 mm | - | - | - |
| 1777538254 | 8.89° C | 76% | 1023.7 hPa | 0 mm | - | - | - |
| 1777537689 | 8.33° C | 78% | 1023.7 hPa | 0 mm | - | - | - |
| 1777537654 | 8.33° C | 78% | 1023.7 hPa | 0 mm | - | - | - |
| 1777537024 | 8.33° C | 78% | 1023.4 hPa | 0 mm | - | - | - |
| 1777536423 | 8.33° C | 77% | 1023 hPa | 0 mm | - | - | - |
* Rain latest hour (hover to see other rain measurements)
** Current wind speed in m/s (hover to see current wind gust speed)